GSAT-10

Last updated on Nov. 18, 2019, 4:21 a.m. UTC

1 38779U 12051B   19321.51546146 -.00000158  00000-0  00000+0 0  9995
2 38779   0.0480 107.8545 0001532 123.0027  94.0492  1.00270985 26181
UTC
Height (km)
Latitude
Longitude
Inclination
Orbital Period
UTC large
Height (km)
Speed (km/s)
/
Latitude / Longitude
Inclination (degrees)
Orbital Period (minutes)
Azimuth
Elevation
Range (km)
Doppler Factor
iOS Compass Heading
iOS Angle

Next 30 passes for location: Hong Kong

Rise time Rise Azimuth (degrees) Set time Set Azimuth (degrees) Duration Max altitude (degrees)

No matching passes for this satellites